Change the Weather History Date:

Sunday, January 26, 2014

  Actual Average Record
Temperature  
Mean Temperature 26 °F 27 °F  
Max Temperature 32 °F 36 °F 55 °F (2003)
Min Temperature 19 °F 19 °F -19 °F (1949)
Degree Days  
Heating Degree Days 39 38  
Month to date heating degree days 884 1000  
Since 1 July heating degree days 3723 3880  
Cooling Degree Days 0 0  
Month to date cooling degree days 0 0  
Year to date cooling degree days 0 0  
Moisture  
Dew Point 19 °F    
Average Humidity 82    
Maximum Humidity 100    
Minimum Humidity 63    
Precipitation  
Precipitation 0.00 in 0.03 in 0.41 in (1970)
Month to date precipitation 0.32 0.79  
Year to date precipitation 0.32 0.79  
Sea Level Pressure  
Sea Level Pressure 30.24 in    
Wind  
Wind Speed 3 mph (West)    
Max Wind Speed 7 mph    
Max Gust Speed 14 mph    
Visibility 5 miles    
Events      
T = Trace of Precipitation, MM = Missing Value Source: NWS Daily Summary

Daily Weather History Graph

Daily Weather History Graph

Search for Another Location

Airport or City:

Trip Planner

Search our weather history database for the weather conditions in past years. The results will help you decide how hot, cold, wet, or windy it might be!

Date:

Astronomy

Jan. 26, 2014 Rise Set
Actual Time 7:54 AM MST 5:41 PM MST
Civil Twilight 7:24 AM MST 6:11 PM MST
Nautical Twilight 6:50 AM MST 6:45 PM MST
Astronomical Twilight 6:17 AM MST 7:18 PM MST
Moon 3:36 AM MST (1/26) 1:33 PM MST (1/26)
Length of Visible Light 10h 47m
Length of Day
9h 46m
Waning Crescent, 23% of the Moon is Illuminated
Jan 26
Waning Crescent
Jan 30
New
Feb 6
First Quarter
Feb 14
Full
Feb 22
Last Quarter

Hourly Weather History & Observations

Time (MST) Temp. Windchill Dew Point Humidity Pressure Visibility Wind Dir Wind Speed Gust Speed Precip Events Conditions
12:46 AM 19.9 °F - 19.0 °F 96% 30.27 in 3.0 mi Calm Calm - N/A   Overcast
12:53 AM 19.9 °F 14.9 °F 19.0 °F 96% 30.39 in 3.0 mi NW 3.5 mph - N/A   Overcast
12:59 AM 19.9 °F - 19.0 °F 96% 30.27 in 1.8 mi Calm Calm - N/A   Overcast
1:13 AM 19.9 °F - 19.0 °F 96% 30.27 in 3.0 mi Calm Calm - N/A   Overcast
1:28 AM 19.9 °F 14.9 °F 18.0 °F 92% 30.26 in 2.5 mi North 3.5 mph - N/A   Overcast
1:53 AM 19.9 °F - 19.0 °F 96% 30.37 in 2.5 mi Calm Calm - N/A   Overcast
2:08 AM 19.9 °F - 19.0 °F 96% 30.26 in 3.0 mi Calm Calm - N/A   Overcast
2:19 AM 19.9 °F - 19.0 °F 96% 30.26 in 2.5 mi Calm Calm - N/A   Overcast
2:39 AM 19.9 °F 14.9 °F 18.0 °F 92% 30.26 in 3.0 mi WNW 3.5 mph - N/A   Overcast
2:53 AM 19.9 °F - 19.0 °F 96% 30.36 in 3.0 mi Calm Calm - N/A   Overcast
3:35 AM 19.0 °F 13.9 °F 18.0 °F 96% 30.25 in 2.5 mi West 3.5 mph - N/A   Overcast
3:48 AM 19.4 °F 14.3 °F 17.6 °F 93% 30.24 in 1.2 mi WNW 3.5 mph - N/A   Overcast
3:53 AM 19.0 °F - 18.0 °F 96% 30.35 in 1.2 mi Calm Calm - N/A   Overcast
4:16 AM 19.9 °F 14.9 °F 18.0 °F 92% 30.24 in 2.0 mi WSW 3.5 mph - N/A   Overcast
4:31 AM 19.0 °F 12.3 °F 18.0 °F 96% 30.23 in 1.8 mi WSW 4.6 mph - N/A   Overcast
4:38 AM 19.0 °F 13.9 °F 19.0 °F 100% 30.23 in 2.5 mi WSW 3.5 mph - N/A   Overcast
4:48 AM 19.4 °F - 19.4 °F 100% 30.24 in 1.8 mi Calm Calm - N/A   Overcast
4:53 AM 19.0 °F 13.9 °F 18.0 °F 96% 30.35 in 2.5 mi West 3.5 mph - N/A   Overcast
5:00 AM 19.0 °F 13.9 °F 18.0 °F 96% 30.24 in 4.0 mi Variable 3.5 mph - N/A   Overcast
5:53 AM 19.0 °F 12.3 °F 18.0 °F 96% 30.34 in 4.0 mi SSW 4.6 mph - N/A   Overcast
6:53 AM 19.0 °F - 17.1 °F 92% 30.33 in 2.5 mi Calm Calm - N/A   Overcast
7:02 AM 19.0 °F 13.9 °F 17.1 °F 92% 30.22 in 3.0 mi WSW 3.5 mph - N/A   Overcast
7:53 AM 19.0 °F 13.9 °F 18.0 °F 96% 30.34 in 4.0 mi SSW 3.5 mph - N/A   Overcast
8:21 AM 19.0 °F - 18.0 °F 96% 30.22 in 2.5 mi Calm Calm - N/A   Overcast
8:31 AM 19.0 °F 12.3 °F 17.1 °F 92% 30.22 in 3.0 mi SW 4.6 mph - N/A   Overcast
8:53 AM 19.0 °F - 18.0 °F 96% 30.34 in 3.0 mi Calm Calm - N/A   Overcast
9:53 AM 19.9 °F 14.9 °F 18.0 °F 92% 30.34 in 4.0 mi West 3.5 mph - N/A   Overcast
10:53 AM 19.9 °F 14.9 °F 18.0 °F 92% 30.34 in 7.0 mi West 3.5 mph - N/A   Overcast
11:05 AM 19.9 °F 12.1 °F 19.0 °F 96% 30.22 in 7.0 mi West 5.8 mph - N/A   Overcast
11:53 AM 21.9 °F 17.2 °F 19.0 °F 89% 30.32 in 9.0 mi Variable 3.5 mph - N/A   Overcast
12:22 PM 23.0 °F - 19.0 °F 85% 30.20 in 10.0 mi Calm Calm - N/A   Mostly Cloudy
12:53 PM 23.0 °F - 19.0 °F 85% 30.29 in 10.0 mi Calm Calm - N/A   Scattered Clouds
1:06 PM 25.0 °F - 19.0 °F 78% 30.17 in 10.0 mi Calm Calm - N/A   Mostly Cloudy
1:19 PM 26.1 °F - 19.9 °F 78% 30.16 in 10.0 mi Calm Calm - N/A   Scattered Clouds
1:53 PM 28.0 °F - 19.9 °F 72% 30.25 in 10.0 mi Calm Calm - N/A   Clear
2:53 PM 30.0 °F 25.2 °F 19.0 °F 64% 30.22 in 10.0 mi WNW 4.6 mph - N/A   Clear
3:53 PM 30.9 °F 26.2 °F 19.0 °F 61% 30.21 in 10.0 mi WNW 4.6 mph - N/A   Clear
4:53 PM 28.9 °F 22.8 °F 19.9 °F 69% 30.21 in 10.0 mi NW 5.8 mph - N/A   Clear
5:53 PM 25.0 °F 18.1 °F 19.9 °F 81% 30.21 in 10.0 mi NW 5.8 mph - N/A   Clear
6:53 PM 23.0 °F 17.0 °F 19.0 °F 85% 30.22 in 10.0 mi WNW 4.6 mph - N/A   Clear
7:53 PM 21.0 °F 16.2 °F 19.0 °F 92% 30.23 in 10.0 mi NW 3.5 mph - N/A   Clear
8:53 PM 19.0 °F 13.9 °F 17.1 °F 92% 30.23 in 10.0 mi West 3.5 mph - N/A   Scattered Clouds
9:05 PM 19.9 °F 14.9 °F 18.0 °F 92% 30.10 in 10.0 mi West 3.5 mph - N/A   Mostly Cloudy
9:12 PM 19.9 °F 12.1 °F 18.0 °F 92% 30.10 in 10.0 mi West 5.8 mph - N/A   Mostly Cloudy
9:53 PM 21.0 °F 14.6 °F 19.9 °F 96% 30.22 in 7.0 mi West 4.6 mph - N/A   Overcast
10:38 PM 21.0 °F - 19.9 °F 96% 30.11 in 6.0 mi Calm Calm - N/A   Overcast
10:53 PM 21.0 °F 14.6 °F 19.9 °F 96% 30.22 in 7.0 mi West 4.6 mph - N/A   Overcast
11:23 PM 21.0 °F 14.6 °F 19.9 °F 96% 30.10 in 5.0 mi WSW 4.6 mph - N/A   Overcast
11:34 PM 21.0 °F 13.4 °F 19.9 °F 96% 30.10 in 6.0 mi WNW 5.8 mph - N/A   Overcast
11:42 PM 21.0 °F 14.6 °F 19.9 °F 96% 30.10 in 5.0 mi WNW 4.6 mph - N/A   Overcast
11:53 PM 21.0 °F 12.4 °F 19.9 °F 96% 30.21 in 5.0 mi West 6.9 mph - N/A   Overcast